Showing default

BB 1, 56171

Orbit data source: Space-Track

BB 1, 56171 is a payload satellite owned by SDA (US) in LEO that was launched on Sun, 02 Apr 2023 UTC via an FALCON 9 launch vehicle from the Air Force Western Test Range (AFWTR). Payloads include a variety of satellites, spacecraft, and rockets equipped with specific instruments for various scientific and technological missions. These include communications satellites like Starlink; space stations such as the ISS; scientific satellites like the Hubble; Earth observation satellites from companies like Planet Labs, Umbra, and HawkEye 360; GPS; miniature CubeSats for education and research; and military/defense satellites.

Loading next visibility...
BB 1 details
Identifier
56171, 2023-050K
Orbit
LEO
Last TLE update16 hours ago
Origin
Flag of USSDA (US)
ManufacturerSPX/LEIDOS
MissionOperational Defense Early Warn
Bus & MotorSTARSHIELD?, Unknown motor
Mass~800 kg wet, ~800 kg dry
Launch date (UTC)
2023-04-02 (2 years ago)
Launch vehicle
FALCON 9
Launch site
Air Force Western Test Range (AFWTR)
Object type
Payload
Rocket body
Debris
Shape & HBRBox + 1 Pan, 9 m
Radar Cross Section12.397 m², Large (>1 m²)

Expand to show TLE details & history

TLE from 16 hours ago
0 BB 1
1 56171U 23050K   25014.93703711  .00000117  00000-0  10343-3 0  9996
2 56171  81.0006 213.9282 0015395 249.0246 110.9260 13.79356077 90033
Epoch: 2025-01-14T22:29Z
Definitive object data (Epoch: 2025-01-14T22:29:20.006Z)
Latitude-0.00002°
Longitude121.95827°
Altitude973.075 km
Speed7.363 km/s
True Right ascension14h 15m 42s
True Declination0° 00' 00"
Sunlit
Object was in daylight at TLE epoch
Visualization TLE readout
Latitude71.94486°
Longitude-87.58406°
Altitude987.36 km
Speed7.36 km/s
Apparent Right ascension02h 24m 07s
Apparent Declination23° 28' 53"
Sunlit
Object is in daylight
Visualization observer readout
Local Sidereal Time15:20:52
Azimuth14.392° NNE
Elevation-25.235°
Doppler factor1
Orbital elements
Apogee altitude974.701 km
Perigee altitude952.096 km
Semi-major axis7,341.536 km
Eccentricity0.0015395
Inclination81.0006°
RAAN213.9282°
Arg. of periapsis249.0246°
True anomaly111.09066°
Mean anomaly110.926°
Eccentric anomaly111.00834°
Mean motion3.45035 °/min
BSTAR0.00010343
Orbital period104.34 mins
Loading maneuver chart data...
Loading historical data...
Loading historical data...
Loading historical data...
Loading historical data...
Loading historical data...
Loading historical data...
Loading historical data...

BB 1 Visibility forecast

Observer location: undefined°, undefined

Span
Click to sort rows by Start time (UTC) header in descending order
Start Az.
Max El. time (UTC)
Max El. Az.
Max El.
End time (UTC)
End Az.
7 mins2025-01-15 23:27:09.072Z27.163° NE2025-01-15 23:31:09.072Z70.356° E17.746°2025-01-15 23:34:09.072Z102.547° ESE
10 mins2025-01-16 01:12:09.072Z341.589° N2025-01-16 01:17:09.072Z244.256° WSW41.914°2025-01-16 01:22:09.072Z185.307° SSW
9 mins2025-01-16 12:55:09.072Z138.918° SSE2025-01-16 12:59:09.072Z83.456° E27.493°2025-01-16 13:04:09.072Z29.974° NE
|